weather.gov     
National Weather Service

Terminal Aerodrome Forecast
NWS Homepage
This page is being discontinued on March 12, 2014.
The same data is available at this site. Please update your bookmarks.
Thank you, and we apologize for the inconvenience.
Please send an email to SR-SRH.Webmaster@noaa.gov with any concerns.


Current Version
Previous Version:    01  02  03  04  05  06  07  08  09  10  11  12  13  14  15  16  17  18  19  20  21  22  23  24  25  26  27  28  29  30  
   31  32  33  34  35  36  37  38  39  40  41  42  43  44  45  46  47  48  49  50  51  
[Printable]
878
FTUS42 KTBW 210500
TAFTPA
TAF
KTPA 210531Z 2106/2206 03005KT P6SM FEW030 SCT250
     FM211200 05004KT P6SM VCSH SCT030 BKN250
     FM211500 VRB06KT P6SM VCTS SCT030CB BKN070
     FM212000 24007KT P6SM VCTS SCT035CB BKN070
     FM220200 VRB03KT P6SM SCT040 BKN060=


U.S. Dept. of Commerce
NOAA National Weather Service
1325 East West Highway
Silver Spring, MD 20910
E-mail: w-nws.webmaster@noaa.gov
Page last modified: May 16, 2007
NATIONAL WEATHER SERVICE: for Safety, for Work, for Fun - FOR LIFE